Weather History for Delta, CO

Change the Weather History Date:

Monday, October 15, 2012

  Actual Average (KMTJ) Record (KMTJ)
Temperature  
Mean Temperature 56 °F 50 °F  
Max Temperature 72 °F 65 °F 81 °F (2011)
Min Temperature 40 °F 36 °F 28 °F (1997)
Degree Days  
Heating Degree Days 9 15  
Month to date heating degree days 177  
Since 1 July heating degree days 304  
Cooling Degree Days 0 0  
Month to date cooling degree days 0  
Year to date cooling degree days 643  
Growing Degree Days 6 (Base 50)    
Moisture  
Dew Point 39 °F    
Average Humidity 59    
Maximum Humidity 88    
Minimum Humidity 28    
Precipitation  
Precipitation 0.00 in 0.04 in 0.01 in (2013)
Month to date precipitation 0.74  
Year to date precipitation 9.39  
Sea Level Pressure  
Sea Level Pressure 30.19 in    
Wind  
Wind Speed 4 mph ()    
Max Wind Speed 12 mph    
Max Gust Speed -    
Visibility 10.0 miles    
Events      
T = Trace of Precipitation, MM = Missing Value Source: Averaged Metar Reports

Daily Weather History Graph

Daily Weather History Graph

Search for Another Location

Airport:

Trip Planner

Search our weather history database for the weather conditions in past years. The results will help you decide how hot, cold, wet, or windy it might be!

Date:

Astronomy

Oct. 15, 2012 Rise Set
Actual Time 7:22 AM MDT 6:33 PM MDT
Civil Twilight 6:55 AM MDT 6:59 PM MDT
Nautical Twilight 6:24 AM MDT 7:30 PM MDT
Astronomical Twilight 5:53 AM MDT 8:01 PM MDT
Moon 7:35 AM MDT (10/15) 6:35 PM MDT (10/15)
Length of Visible Light 12h 04m
Length of Day
11h 10m
New Moon, 0% of the Moon is Illuminated
Oct 15
New Moon
Oct 21
First Quarter
Oct 29
Full
Nov 6
Last Quarter
Nov 13
New

Hourly Weather History & Observations

Time (MDT) Temp. Windchill Dew Point Humidity Pressure Visibility Wind Dir Wind Speed Gust Speed Precip Events Conditions
12:15 AM 48.2 °F - 40.1 °F 74% 30.31 in 10.0 mi ENE 6.9 mph - N/A   Unknown
12:35 AM 47.7 °F - 40.1 °F 75% 30.31 in 10.0 mi ENE 6.9 mph - N/A   Unknown
12:55 AM 46.6 °F - 39.6 °F 77% 30.31 in 10.0 mi East 5.8 mph - N/A   Unknown
1:15 AM 46.2 °F 42.7 °F 39.4 °F 77% 30.31 in 10.0 mi ENE 6.9 mph - N/A   Unknown
1:35 AM 45.9 °F 42.3 °F 39.2 °F 78% 30.31 in 10.0 mi NE 6.9 mph - N/A   Unknown
1:55 AM 46.4 °F 42.4 °F 38.3 °F 73% 30.31 in 10.0 mi ENE 8.1 mph - N/A   Unknown
2:15 AM 45.7 °F 43.4 °F 38.5 °F 76% 30.31 in 10.0 mi ENE 4.6 mph - N/A   Unknown
2:35 AM 44.6 °F - 38.3 °F 79% 30.30 in 10.0 mi Calm Calm - N/A   Unknown
2:55 AM 43.0 °F - 38.1 °F 83% 30.30 in 10.0 mi Calm Calm - N/A   Unknown
3:15 AM 41.2 °F - 37.9 °F 88% 30.28 in 10.0 mi Calm Calm - N/A   Unknown
3:35 AM 42.1 °F - 38.5 °F 87% 30.28 in 10.0 mi Calm Calm - N/A   Unknown
3:55 AM 42.1 °F 39.2 °F 38.5 °F 87% 30.28 in 10.0 mi NNE 4.6 mph - N/A   Unknown
4:15 AM 42.6 °F 40.9 °F 37.4 °F 82% 30.28 in 10.0 mi NNE 3.5 mph - N/A   Unknown
4:35 AM 41.9 °F 36.3 °F 37.0 °F 83% 30.28 in 10.0 mi NNE 9.2 mph - N/A   Unknown
4:55 AM 41.7 °F 36.7 °F 37.2 °F 84% 30.27 in 10.0 mi NNE 8.1 mph - N/A   Unknown
5:15 AM 43.0 °F 38.8 °F 36.7 °F 78% 30.28 in 10.0 mi ENE 6.9 mph - N/A   Unknown
5:35 AM 43.0 °F 38.8 °F 36.5 °F 78% 30.27 in 10.0 mi East 6.9 mph - N/A   Unknown
6:35 AM 40.6 °F 36.7 °F 36.1 °F 84% 30.27 in 10.0 mi NE 5.8 mph - N/A   Unknown
6:55 AM 40.5 °F 37.3 °F 35.8 °F 83% 30.27 in 10.0 mi NE 4.6 mph - N/A   Unknown
7:35 AM 40.1 °F 38.0 °F 35.6 °F 84% 30.27 in 10.0 mi NNE 3.5 mph - N/A   Unknown
7:55 AM 41.4 °F 39.4 °F 36.7 °F 83% 30.28 in 10.0 mi East 3.5 mph - N/A   Unknown
8:15 AM 42.3 °F - 37.4 °F 83% 30.28 in 10.0 mi Calm Calm - N/A   Unknown
8:55 AM 45.0 °F - 38.5 °F 78% 30.30 in 10.0 mi Calm Calm - N/A   Unknown
9:15 AM 45.3 °F - 39.2 °F 79% 30.30 in 10.0 mi Calm Calm - N/A   Unknown
9:35 AM 48.6 °F - 39.0 °F 70% 30.30 in 10.0 mi Calm Calm - N/A   Unknown
9:55 AM 50.7 °F - 38.5 °F 63% 30.29 in 10.0 mi Calm Calm - N/A   Unknown
10:35 AM 53.2 °F - 39.2 °F 59% 30.28 in 10.0 mi Calm Calm - N/A   Unknown
10:55 AM 55.0 °F - 39.0 °F 55% 30.28 in 10.0 mi Calm Calm - N/A   Unknown
11:15 AM 57.9 °F - 39.6 °F 50% 30.26 in 10.0 mi East 4.6 mph - N/A   Unknown
11:35 AM 59.2 °F - 39.7 °F 49% 30.25 in 10.0 mi NE 4.6 mph - N/A   Unknown
12:15 PM 62.4 °F - 39.7 °F 43% 30.23 in 10.0 mi East 3.5 mph - N/A   Unknown
12:35 PM 63.3 °F - 39.2 °F 41% 30.22 in 10.0 mi East 3.5 mph - N/A   Unknown
12:55 PM 64.6 °F - 38.8 °F 39% 30.21 in 10.0 mi Calm Calm - N/A   Unknown
1:15 PM 66.2 °F - 38.1 °F 36% 30.19 in 10.0 mi Calm Calm - N/A   Unknown
1:35 PM 66.9 °F - 36.5 °F 33% 30.18 in 10.0 mi Calm Calm - N/A   Unknown
1:55 PM 68.7 °F - 36.7 °F 31% 30.17 in 10.0 mi Calm Calm - N/A   Unknown
2:15 PM 68.9 °F - 36.0 °F 30% 30.15 in 10.0 mi Calm Calm - N/A   Unknown
2:35 PM 70.2 °F - 37.2 °F 30% 30.15 in 10.0 mi SW 4.6 mph - N/A   Unknown
2:55 PM 70.7 °F - 36.9 °F 29% 30.13 in 10.0 mi SSW 5.8 mph - N/A   Unknown
3:15 PM 71.1 °F - 37.2 °F 29% 30.12 in 10.0 mi SSW 5.8 mph - N/A   Unknown
3:35 PM 71.8 °F - 37.9 °F 29% 30.12 in 10.0 mi WSW 6.9 mph - N/A   Unknown
3:55 PM 72.5 °F - 37.4 °F 28% 30.11 in 10.0 mi SW 9.2 mph - N/A   Unknown
4:15 PM 72.1 °F - 37.4 °F 28% 30.10 in 10.0 mi SW 8.1 mph - N/A   Unknown
4:35 PM 72.1 °F - 37.4 °F 28% 30.10 in 10.0 mi SSW 8.1 mph - N/A   Unknown
5:15 PM 70.0 °F - 36.7 °F 30% 30.09 in 10.0 mi WSW 11.5 mph - N/A   Unknown
5:35 PM 69.8 °F - 36.3 °F 29% 30.08 in 10.0 mi WSW 5.8 mph - N/A   Unknown
5:55 PM 69.1 °F - 37.0 °F 31% 30.08 in 10.0 mi WSW 6.9 mph - N/A   Unknown
6:15 PM 67.3 °F - 37.4 °F 33% 30.08 in 10.0 mi WSW 8.1 mph - N/A   Unknown
6:35 PM 65.3 °F - 39.2 °F 38% 30.08 in 10.0 mi West 6.9 mph - N/A   Unknown
6:55 PM 63.7 °F - 40.5 °F 43% 30.08 in 10.0 mi WSW 5.8 mph - N/A   Unknown
7:15 PM 62.6 °F - 40.6 °F 45% 30.08 in 10.0 mi West 5.8 mph - N/A   Unknown
7:35 PM 62.2 °F - 41.0 °F 46% 30.08 in 10.0 mi Calm Calm - N/A   Unknown
7:55 PM 59.5 °F - 42.3 °F 53% 30.09 in 10.0 mi NE 3.5 mph - N/A   Unknown
8:15 PM 56.7 °F - 43.5 °F 61% 30.09 in 10.0 mi NE 6.9 mph - N/A   Unknown
8:35 PM 57.4 °F - 42.1 °F 57% 30.09 in 10.0 mi NE 6.9 mph - N/A   Unknown
8:55 PM 56.3 °F - 41.0 °F 57% 30.09 in 10.0 mi NE 3.5 mph - N/A   Unknown
9:15 PM 53.6 °F - 41.7 °F 64% 30.09 in 10.0 mi NE 4.6 mph - N/A   Unknown
9:35 PM 53.6 °F - 40.5 °F 61% 30.10 in 10.0 mi NE 3.5 mph - N/A   Unknown
9:55 PM 51.1 °F - 41.0 °F 68% 30.10 in 10.0 mi NE 4.6 mph - N/A   Unknown
10:15 PM 51.1 °F - 40.3 °F 67% 30.10 in 10.0 mi NE 4.6 mph - N/A   Unknown
10:35 PM 50.9 °F - 40.5 °F 67% 30.10 in 10.0 mi NNE 5.8 mph - N/A   Unknown
10:55 PM 50.0 °F - 40.5 °F 70% 30.09 in 10.0 mi NNE 5.8 mph - N/A   Unknown
11:15 PM 51.1 °F - 39.6 °F 65% 30.09 in 10.0 mi NE 8.1 mph - N/A   Unknown
11:35 PM 51.8 °F - 39.2 °F 62% 30.09 in 10.0 mi NE 5.8 mph - N/A   Unknown
11:55 PM 49.6 °F - 39.6 °F 68% 30.10 in 10.0 mi Calm Calm - N/A   Unknown